Flag for Canada Weather past 2 weeks in Creighton, Saskatchewan, Canada

Now
66 °F

Clear.


Feels Like: 66 °F
Forecast: 61 / 85 °F
Wind: No wind

Location: The Pas

Current Time: Jul 30, 2014 at 2:33:16 AM

Latest Report: Jul 30, 2014 at 2:00 AM


Visibility: 15 mi

Pressure: 30.06 "Hg

Humidity: 73%

Dew point: 57 °F

Location of CreightonLocation

Historic Weather in Creighton — Graph

°F

Creighton temperature yesterday

Maximum temperature yesterday: 82 °F (at 3:00 PM)
Minimum temperature yesterday: 52 °F (at 5:00 AM)
Average temperature yesterday: 69 °F

Past Weeks' High & Low Weather Summary

 TemperatureHumidityPressure
High82 °F (Jul 16, 4:00 PM)100% (Jul 15, 3:00 AM)30.30 "Hg (Jul 15, 3:00 AM)
Low52 °F (Jul 19, 6:00 AM)32% (Jul 17, 6:00 PM)29.40 "Hg (Jul 18, 2:00 PM)
Average66 °F71%29.90 "Hg
* Reported Jul 15 1:00 AM — Jul 30 1:00 AM, Creighton, Weather by CustomWeather, © 2014

Note: Actual official high and low records may vary slightly from our data, if they occured in-between our weather recording intervals... More about our weather records

Advertising

Creighton weather history for previous 24 hours

 ConditionsComfort  
Time TempWeatherWind HumidityBarometerVisibility
1:00 AM
Jul 30
70 °FClear.3 mph64%30.06 "Hg15 mi
12:00 AM72 °FClear.3 mph65%30.06 "Hg15 mi
11:00 PM
Jul 29
72 °FPassing clouds.3 mph69%30.06 "Hg15 mi
10:00 PM72 °FPartly sunny.3 mph69%30.07 "Hg15 mi
9:00 PM77 °FScattered clouds.3 mph57%30.07 "Hg15 mi
8:00 PM81 °FPassing clouds.7 mph48%30.07 "Hg15 mi
7:00 PM82 °FScattered clouds.8 mph42%30.07 "Hg15 mi
6:00 PM82 °FScattered clouds.7 mph42%30.09 "Hg15 mi
5:00 PM82 °FPassing clouds.5 mph40%30.09 "Hg15 mi
4:00 PM81 °FScattered clouds.5 mph42%30.11 "Hg15 mi
3:00 PM82 °FPassing clouds.3 mph40%30.11 "Hg15 mi
2:00 PM81 °FPassing clouds.2 mph42%30.13 "Hg15 mi
1:00 PM79 °FSunny.3 mph45%30.14 "Hg15 mi
12:00 PM77 °FSunny.3 mph51%30.15 "Hg15 mi
11:00 AM75 °FSunny.3 mph57%30.16 "Hg15 mi
10:00 AM72 °FSunny.2 mph69%30.17 "Hg15 mi
9:00 AM68 °FSunny.3 mph78%30.17 "Hg15 mi
8:00 AM63 °FSunny.No wind94%30.17 "Hg15 mi
7:00 AM57 °FSunny.No wind94%30.17 "Hg15 mi
6:00 AM54 °FPassing clouds.No wind94%30.17 "Hg15 mi
5:00 AM52 °FPassing clouds.No wind100%30.17 "Hg15 mi
4:00 AM54 °FClear.No wind94%30.17 "Hg15 mi
3:00 AM54 °FClear.No wind100%30.17 "Hg15 mi
2:00 AM55 °FClear.No wind94%30.18 "Hg15 mi
Weather by CustomWeather, © 2014

See weather overviewHow to use our weather pages